Location: The Saddle
(36.8333°N, 80.3417°W)
Time: 09:47:01
(UTC-05:00)

SR - Pass Details

Date: 19 December 2023
Orbit: 574 x 867 km, 66.7° (Epoch: 03 March)

Event Time Altitude Azimuth Distance (km) Brightness Sun altitude
Rises 06:25:51 0° 155° (SSE) 3,246 ? -12.4°
Reaches altitude 10° 06:29:28 10° 130° (SE) 2,383 ? -11.7°
Maximum altitude 06:32:04 14° 102° (ESE) 2,180 ? -11.2°
Drops below altitude 10° 06:34:44 10° 74° (ENE) 2,459 ? -10.7°
Sets 06:38:33 0° 49° (NE) 3,434 ? -10.0°
